Flag for Norway Weather past 2 weeks in Larvik, Norway

Now
82 °F

Passing clouds.


Feels Like: 82 °F
Forecast: 63 / 81 °F
Wind: 3 mph from Northwest

Location: Torp

Current Time: Jul 23, 2014 at 12:18:41 PM

Latest Report: Jul 23, 2014 at 10:50 AM


Visibility: N/A

Pressure: 30.30 "Hg

Humidity: 45%

Dew point: 59 °F

Location of LarvikLocation

Historic Weather in Larvik — Graph

°F

Larvik temperature yesterday

Maximum temperature yesterday: 84 °F (at 1:20 PM)
Minimum temperature yesterday: 59 °F (at 5:20 AM)
Average temperature yesterday: 75 °F

Past Weeks' High & Low Weather Summary

 TemperatureHumidityPressure
High84 °F (Jul 21, 5:50 PM)100% (Jul 14, 6:50 AM)30.30 "Hg (Jul 14, 6:50 AM)
Low52 °F (Jul 18, 4:50 AM)31% (Jul 12, 4:50 PM)29.62 "Hg (Jul 13, 8:50 PM)
Average68 °F67%30.01 "Hg
* Reported Jul 8 10:20 AM — Jul 23 10:50 AM, Larvik, Weather by CustomWeather, © 2014

Note: Actual official high and low records may vary slightly from our data, if they occured in-between our weather recording intervals... More about our weather records

Advertising

Larvik weather history for previous 24 hours

 ConditionsComfort  
Time TempWeatherWind HumidityBarometerVisibility
10:50 AM
Jul 23
82 °FPassing clouds.3 mph45%30.30 "HgN/A
9:50 AM77 °FPassing clouds.5 mph54%30.30 "HgN/A
7:50 AM70 °FSunny.2 mph69%30.30 "Hg10 mi
7:20 AM68 °FSunny.1 mph69%30.30 "Hg10 mi
6:50 AM66 °FSunny.5 mph78%30.30 "Hg10 mi
6:20 AM64 °FSunny.3 mph78%30.30 "Hg10 mi
5:50 AM63 °FSunny.3 mph83%30.30 "Hg10 mi
5:20 AM61 °FPassing clouds.2 mph83%30.30 "HgN/A
4:50 AM63 °FMild.2 mph77%30.30 "HgN/A
4:20 AM64 °FPassing clouds.1 mph73%30.30 "HgN/A
3:50 AM63 °FPassing clouds.2 mph73%30.30 "HgN/A
3:20 AM64 °FPassing clouds.1 mph73%30.30 "HgN/A
2:50 AM66 °FPassing clouds.2 mph68%30.30 "HgN/A
2:20 AM68 °FMild.1 mph60%30.27 "HgN/A
1:50 AM68 °FMild.1 mph60%30.27 "HgN/A
6:50 PM
Jul 22
82 °FPassing clouds.8 mph40%30.24 "HgN/A
6:20 PM84 °FPassing clouds.8 mph37%30.24 "HgN/A
5:50 PM82 °FPassing clouds.8 mph40%30.24 "HgN/A
5:20 PM81 °FPassing clouds.8 mph39%30.24 "HgN/A
4:50 PM84 °FPassing clouds.7 mph40%30.24 "HgN/A
4:20 PM84 °FPassing clouds.7 mph37%30.24 "HgN/A
3:50 PM82 °FPassing clouds.10 mph40%30.24 "HgN/A
3:20 PM84 °FPassing clouds.7 mph40%30.24 "HgN/A
2:50 PM84 °FPassing clouds.7 mph37%30.24 "HgN/A
2:20 PM84 °FScattered clouds.2 mph37%30.27 "HgN/A
1:50 PM84 °FScattered clouds.3 mph37%30.27 "HgN/A
1:20 PM84 °FScattered clouds.6 mph35%30.27 "HgN/A
12:50 PM82 °FScattered clouds.No wind37%30.27 "HgN/A
12:20 PM82 °FPassing clouds.5 mph40%30.27 "HgN/A
Weather by CustomWeather, © 2014

See weather overviewHow to use our weather pages